• In Hungary
  • List of Countries
  • For 7 days
  • Water Temperature
  • Satellite Maps
  • Weather Map
  • News
  • Weather Widgets
  • user-avatar
    Login

    Hourly Weather Niedzica

    Today, 11 December, Monday

    Time Temperature Precipitation Wind Pressure Humidity
    00:00 -4°C° 0 mm 6 mps 691 mmHg 77%
    01:00 -1°C° 0 mm 1 mps 691 mmHg 83%
    02:00 -2°C° 0 mm 3 mps 691 mmHg 83%
    03:00 -3°C° 0 mm 4 mps 691 mmHg 83%
    04:00 -4°C° 0 mm 5 mps 691 mmHg 83%
    05:00 -2°C° 0.1 mm 5 mps 691 mmHg 83%
    06:00 -1°C° 0.1 mm 5 mps 691 mmHg 83%
    07:00 -1°C° 0 mm 4 mps 691 mmHg 84%
    08:00 -1°C° 0 mm 4 mps 691 mmHg 84%
    09:00 0°C° 0 mm 4 mps 691 mmHg 84%
    10:00 +1°C° 0 mm 5 mps 692 mmHg 84%
    11:00 +1°C° 0 mm 5 mps 692 mmHg 83%
    12:00 +2°C° 0 mm 5 mps 692 mmHg 83%
    13:00 +3°C° 0 mm 4 mps 691 mmHg 81%
    14:00 +2°C° 0 mm 5 mps 691 mmHg 82%
    15:00 +2°C° 0 mm 5 mps 692 mmHg 82%
    16:00 +2°C° 0 mm 6 mps 692 mmHg 83%
    17:00 +3°C° 0 mm 6 mps 691 mmHg 83%
    18:00 +3°C° 0 mm 6 mps 691 mmHg 83%
    19:00 +3°C° 0 mm 6 mps 691 mmHg 83%
    20:00 +3°C° 0 mm 6 mps 691 mmHg 84%
    21:00 +3°C° 0 mm 6 mps 691 mmHg 84%
    22:00 +4°C° 0 mm 6 mps 691 mmHg 85%
    23:00 +4°C° 0 mm 7 mps 691 mmHg 84%

    Tomorrow, 12 December, Tuesday

    Time Temperature Precipitation Wind Pressure Humidity
    00:00 +4°C° 0 mm 7 mps 691 mmHg 83%
    01:00 +5°C° 0 mm 8 mps 691 mmHg 82%
    02:00 +5°C° 0 mm 8 mps 691 mmHg 82%
    03:00 +5°C° 0 mm 8 mps 691 mmHg 81%
    04:00 +5°C° 0 mm 8 mps 691 mmHg 81%
    05:00 +5°C° 0 mm 7 mps 692 mmHg 82%
    06:00 +5°C° 0 mm 6 mps 692 mmHg 83%
    07:00 +4°C° 0 mm 6 mps 693 mmHg 83%
    08:00 +6°C° 0.1 mm 5 mps 694 mmHg 84%
    09:00 +6°C° 0.1 mm 5 mps 694 mmHg 85%
    10:00 +6°C° 0.1 mm 5 mps 695 mmHg 85%
    11:00 +6°C° 0 mm 4 mps 696 mmHg 85%
    12:00 +6°C° 0 mm 4 mps 696 mmHg 85%
    13:00 +7°C° 0 mm 3 mps 697 mmHg 85%
    14:00 +5°C° 0 mm 3 mps 698 mmHg 87%
    15:00 +4°C° 0 mm 3 mps 698 mmHg 88%
    16:00 +4°C° 0 mm 2 mps 699 mmHg 90%
    17:00 +4°C° 0.1 mm 2 mps 699 mmHg 90%
    18:00 +3°C° 0.1 mm 2 mps 700 mmHg 90%
    19:00 +3°C° 0.1 mm 2 mps 700 mmHg 91%
    20:00 +3°C° 0.3 mm 2 mps 701 mmHg 88%
    21:00 +2°C° 0.3 mm 2 mps 701 mmHg 85%
    22:00 +1°C° 0.3 mm 3 mps 702 mmHg 83%
    23:00 +1°C° 0.3 mm 2 mps 702 mmHg 82%

    Day after tomorrow, 13 December, Wednesday

    Time Temperature Precipitation Wind Pressure Humidity
    00:00 +1°C° 0.3 mm 2 mps 703 mmHg 82%
    01:00 -1°C° 0.3 mm 2 mps 703 mmHg 82%
    02:00 -1°C° 0.2 mm 2 mps 703 mmHg 82%
    03:00 -1°C° 0.2 mm 2 mps 703 mmHg 82%
    04:00 -1°C° 0.2 mm 2 mps 704 mmHg 82%
    05:00 0°C° 0 mm 1 mps 704 mmHg 82%
    06:00 0°C° 0 mm 1 mps 704 mmHg 82%
    07:00 0°C° 0 mm 1 mps 704 mmHg 83%
    08:00 0°C° 0 mm 1 mps 705 mmHg 81%
    09:00 +1°C° 0 mm 1 mps 705 mmHg 79%
    10:00 +1°C° 0 mm 1 mps 705 mmHg 77%
    11:00 +2°C° 0 mm 1 mps 705 mmHg 74%
    12:00 +2°C° 0 mm 1 mps 704 mmHg 72%
    13:00 +2°C° 0 mm 1 mps 704 mmHg 69%
    14:00 +1°C° 0 mm 1 mps 704 mmHg 74%
    15:00 0°C° 0 mm 1 mps 703 mmHg 80%
    16:00 -1°C° 0 mm 1 mps 703 mmHg 85%
    17:00 -1°C° 0 mm 1 mps 702 mmHg 86%
    18:00 -2°C° 0 mm 1 mps 702 mmHg 87%
    19:00 -4°C° 0 mm 2 mps 702 mmHg 88%
    20:00 -4°C° 0 mm 2 mps 701 mmHg 86%
    21:00 -4°C° 0 mm 2 mps 701 mmHg 85%
    22:00 -4°C° 0 mm 2 mps 700 mmHg 83%
    23:00 -4°C° 0 mm 2 mps 700 mmHg 80%

    14 December, Thursday

    Time Temperature Precipitation Wind Pressure Humidity
    00:00 -5°C° 0 mm 3 mps 699 mmHg 78%
    01:00 -5°C° 0 mm 3 mps 699 mmHg 76%
    02:00 -5°C° 0 mm 3 mps 698 mmHg 74%
    03:00 -4°C° 0 mm 4 mps 697 mmHg 73%
    04:00 -4°C° 0 mm 4 mps 697 mmHg 71%
    05:00 -3°C° 0 mm 4 mps 697 mmHg 74%
    06:00 -3°C° 0 mm 4 mps 697 mmHg 76%
    07:00 -3°C° 0 mm 4 mps 696 mmHg 78%
    08:00 -2°C° 0 mm 4 mps 696 mmHg 77%
    09:00 -1°C° 0 mm 4 mps 697 mmHg 76%
    10:00 -1°C° 0 mm 4 mps 697 mmHg 75%
    11:00 0°C° 0 mm 4 mps 697 mmHg 76%
    12:00 0°C° 0 mm 4 mps 696 mmHg 77%
    13:00 +1°C° 0 mm 4 mps 696 mmHg 77%
    14:00 +1°C° 0 mm 3 mps 696 mmHg 80%
    15:00 0°C° 0 mm 3 mps 696 mmHg 83%
    16:00 0°C° 0 mm 3 mps 696 mmHg 86%
    17:00 0°C° 0.1 mm 3 mps 696 mmHg 86%
    18:00 0°C° 0.1 mm 3 mps 696 mmHg 86%
    19:00 -1°C° 0.1 mm 3 mps 696 mmHg 86%
    20:00 -1°C° 0 mm 3 mps 695 mmHg 85%
    21:00 -1°C° 0 mm 3 mps 695 mmHg 85%
    22:00 -1°C° 0 mm 3 mps 694 mmHg 84%
    23:00 -1°C° 0 mm 3 mps 694 mmHg 84%

    15 December, Friday

    Time Temperature Precipitation Wind Pressure Humidity
    00:00 -1°C° 0 mm 3 mps 693 mmHg 83%
    01:00 -1°C° 0 mm 3 mps 692 mmHg 83%
    02:00 -1°C° 0 mm 3 mps 692 mmHg 83%
    03:00 -1°C° 0 mm 3 mps 691 mmHg 83%
    04:00 -1°C° 0 mm 3 mps 690 mmHg 83%
    05:00 -1°C° 0 mm 3 mps 690 mmHg 83%
    06:00 -1°C° 0 mm 4 mps 691 mmHg 83%
    07:00 -1°C° 0 mm 4 mps 691 mmHg 83%
    08:00 0°C° 0 mm 4 mps 691 mmHg 80%
    09:00 0°C° 0 mm 4 mps 692 mmHg 78%
    10:00 0°C° 0 mm 5 mps 692 mmHg 75%
    11:00 0°C° 0 mm 4 mps 692 mmHg 72%
    12:00 +1°C° 0 mm 3 mps 693 mmHg 69%
    13:00 +1°C° 0 mm 3 mps 693 mmHg 66%
    14:00 +1°C° 0 mm 2 mps 693 mmHg 71%
    15:00 -1°C° 0 mm 2 mps 693 mmHg 75%
    16:00 0°C° 0 mm 1 mps 693 mmHg 80%
    17:00 0°C° 0 mm 1 mps 693 mmHg 80%
    18:00 0°C° 0 mm 1 mps 693 mmHg 81%
    19:00 -1°C° 0 mm 0 mps 693 mmHg 81%
    20:00 -1°C° 0 mm 0 mps 692 mmHg 81%
    21:00 -1°C° 0 mm 0 mps 692 mmHg 82%
    22:00 -1°C° 0 mm 0 mps 692 mmHg 82%
    23:00 0°C° 0.2 mm 1 mps 692 mmHg 84%

    16 December, Saturday

    Time Temperature Precipitation Wind Pressure Humidity
    00:00 0°C° 0.2 mm 1 mps 692 mmHg 85%
    01:00 0°C° 0.2 mm 1 mps 691 mmHg 87%
    02:00 0°C° 0.6 mm 1 mps 691 mmHg 88%
    03:00 0°C° 0.6 mm 1 mps 691 mmHg 89%
    04:00 -2°C° 0.6 mm 2 mps 691 mmHg 91%
    05:00 -1°C° 0.2 mm 1 mps 691 mmHg 91%
    06:00 -1°C° 0.2 mm 1 mps 692 mmHg 91%
    07:00 -1°C° 0.2 mm 1 mps 692 mmHg 91%
    08:00 0°C° 0.1 mm 1 mps 692 mmHg 90%
    09:00 0°C° 0.1 mm 1 mps 693 mmHg 88%
    10:00 0°C° 0.1 mm 1 mps 693 mmHg 87%
    11:00 +1°C° 0 mm 1 mps 694 mmHg 85%
    12:00 +1°C° 0 mm 1 mps 694 mmHg 84%
    13:00 +1°C° 0 mm 1 mps 694 mmHg 82%
    14:00 +1°C° 0 mm 1 mps 694 mmHg 85%
    15:00 0°C° 0 mm 1 mps 694 mmHg 88%
    16:00 -1°C° 0 mm 1 mps 695 mmHg 91%
    17:00 -1°C° 0 mm 1 mps 695 mmHg 91%
    18:00 -1°C° 0 mm 1 mps 695 mmHg 91%
    19:00 -2°C° 0 mm 1 mps 696 mmHg 91%
    20:00 -2°C° 0 mm 1 mps 696 mmHg 91%
    21:00 -2°C° 0 mm 1 mps 696 mmHg 91%
    22:00 -2°C° 0 mm 1 mps 697 mmHg 91%
    23:00 -2°C° 0 mm 1 mps 697 mmHg 91%
    Show more